FW8085 Weather Reports


Display with metric or nautical units.
time (UTC)temp
F
wind
direction
speed
MPH
gust
MPH
rain 1hr
in
rain 24hr
in
rain mn
in
humidity
%
barometer
mb
20260902004551 53 273 0.0 0.0 0.00 0.00 0.00 90 1021.3
20260902003017 53 273 0.0 0.0 0.00 0.00 0.00 90 1021.3
20260902001547 53 273 0.0 0.0 0.00 0.00 0.00 89 1021.3
20260902000041 53 273 0.0 0.0 0.00 0.00 0.00 89 1021.3
20260901234546 53 273 0.0 0.0 0.00 0.00 0.00 88 1021.4
20260901233008 53 273 0.0 0.0 0.00 0.00 0.00 88 1021.3
20260901231511 54 273 0.0 0.0 0.00 0.00 0.00 87 1021.4
20260901230036 54 273 0.0 2.0 0.00 0.00 0.00 87 1021.4
20260901224549 55 273 0.0 0.0 0.00 0.00 0.00 86 1021.5
20260901223007 55 273 0.0 1.0 0.00 0.00 0.00 86 1021.6
20260901221536 55 273 0.0 0.0 0.00 0.00 0.00 86 1021.5
20260901220056 56 273 0.0 2.0 0.00 0.00 0.00 85 1021.5
20260901214526 56 273 0.0 0.0 0.00 0.00 0.00 85 1021.7
20260901213101 57 273 0.0 0.0 0.00 0.00 0.00 84 1021.7
20260901211547 57 273 0.0 0.0 0.00 0.00 0.00 83 1021.7
20260901210006 57 273 0.0 1.0 0.00 0.00 0.00 82 1021.7
20260901204546 58 273 0.0 0.0 0.00 0.00 0.00 82 1021.9
20260901203023 59 273 0.0 0.0 0.00 0.00 0.00 81 1021.7
20260901201542 59 273 0.0 1.0 0.00 0.00 0.00 80 1021.6
20260901200037 59 273 0.0 2.0 0.00 0.00 0.00 80 1021.6
20260901194501 60 273 0.0 2.0 0.00 0.00 0.00 79 1021.6
20260901193038 60 273 0.0 0.0 0.00 0.00 0.00 77 1021.4
20260901191514 61 273 0.0 0.0 0.00 0.00 0.00 76 1021.2
20260901190101 62 273 0.0 0.0 0.00 0.00 0.00 75 1021.0
20260901184521 63 273 0.0 2.0 0.00 0.00 0.00 73 1021.1
20260901183102 65 273 0.0 2.0 0.00 0.00 0.00 68 1021.0
20260901181538 66 273 0.0 1.0 0.00 0.00 0.00 65 1020.9
20260901180008 67 273 0.0 2.0 0.00 0.00 0.00 64 1021.0
20260901174538 68 271 1.0 3.0 0.00 0.00 0.00 61 1021.0
20260901173014 68 269 2.0 8.0 0.00 0.00 0.00 60 1020.9
20260901171548 67 264 2.0 4.0 0.00 0.00 0.00 62 1021.0
20260901170026 68 277 2.0 6.0 0.00 0.00 0.00 60 1021.0
20260901164636 70 247 3.0 9.0 0.00 0.00 0.00 56 1021.0
20260901163056 70 221 4.0 8.0 0.00 0.00 0.00 54 1020.8
20260901161546 70 226 4.0 8.0 0.00 0.00 0.00 56 1020.8
20260901160049 69 238 4.0 10.0 0.00 0.00 0.00 57 1020.9
20260901154540 69 278 3.0 8.0 0.00 0.00 0.00 57 1020.9
20260901153031 70 225 2.0 9.0 0.00 0.00 0.00 56 1020.8
20260901151510 70 219 4.0 9.0 0.00 0.00 0.00 56 1020.9
20260901150046 69 243 3.0 11.0 0.00 0.00 0.00 58 1021.0
20260901144533 69 262 2.0 10.0 0.00 0.00 0.00 58 1020.9
20260901143054 70 250 4.0 11.0 0.00 0.00 0.00 57 1021.1
20260901141531 69 209 4.0 8.0 0.00 0.00 0.00 57 1021.0
20260901140058 69 234 5.0 12.0 0.00 0.00 0.00 58 1021.0
20260901134528 69 231 3.0 10.0 0.00 0.02 0.00 61 1021.1
20260901133011 70 248 4.0 9.0 0.00 0.02 0.00 58 1021.2
20260901131543 70 234 4.0 10.0 0.00 0.02 0.00 55 1021.3
20260901130015 70 250 3.0 15.0 0.00 0.02 0.00 59 1021.4
20260901124557 71 241 6.0 10.0 0.00 0.08 0.00 58 1021.4
20260901123033 70 235 4.0 11.0 0.00 0.08 0.00 59 1021.4
20260901121509 68 261 3.0 12.0 0.00 0.08 0.00 62 1021.4
20260901120042 69 220 6.0 10.0 0.00 0.08 0.00 63 1021.5
20260901114518 69 247 5.0 8.0 0.00 0.08 0.00 62 1021.4
20260901113046 68 210 4.0 11.0 0.00 0.08 0.00 66 1021.4
20260901111528 67 277 4.0 9.0 0.00 0.08 0.00 70 1021.4
20260901110033 66 260 5.0 13.0 0.00 0.08 0.00 71 1021.6
20260901104554 67 253 6.0 12.0 0.00 0.08 0.00 68 1021.6
20260901103056 67 205 5.0 10.0 0.00 0.08 0.00 71 1021.5
20260901101537 67 251 5.0 10.0 0.00 0.08 0.00 75 1021.5
20260901100022 65 211 4.0 10.0 0.00 0.08 0.00 79 1021.6
20260901094526 63 235 3.0 8.0 0.00 0.08 0.00 81 1021.7
20260901093009 64 278 5.0 11.0 0.00 0.08 0.00 80 1021.6
20260901091557 65 279 4.0 9.0 0.00 0.08 0.00 81 1021.5
20260901090039 63 265 4.0 10.0 0.00 0.08 0.00 84 1021.3
20260901084531 62 255 6.0 12.0 0.00 0.08 0.00 85 1021.4
20260901083028 62 217 4.0 9.0 0.00 0.08 0.00 85 1021.2
20260901081522 62 201 2.0 7.0 0.00 0.08 0.00 85 1021.2
20260901080006 62 197 1.0 5.0 0.00 0.08 0.00 87 1021.1
20260901074550 61 227 1.0 6.0 0.00 0.08 0.00 90 1020.9
20260901073025 60 238 2.0 7.0 0.00 0.08 0.00 90 1020.8
20260901071601 59 240 2.0 9.0 0.00 0.08 0.00 92 1020.7
20260901070033 58 144 2.0 6.0 0.00 0.08 0.00 92 1020.7
20260901064558 58 229 3.0 7.0 0.00 0.08 0.00 93 1020.7
20260901063050 58 236 2.0 6.0 0.00 0.08 0.00 93 1020.6
20260901061545 57 238 1.0 6.0 0.00 0.08 0.00 93 1020.5
20260901060026 57 239 2.0 5.0 0.00 0.08 0.00 93 1020.5
20260901054512 57 252 2.0 4.0 0.00 0.08 0.00 93 1020.3
20260901053012 57 216 2.0 4.0 0.00 0.08 0.00 92 1020.2
20260901051540 57 236 1.0 3.0 0.00 0.08 0.00 92 1020.1
20260901050013 57 250 1.0 4.0 0.00 0.08 0.00 92 1020.1
20260901044535 57 244 0.0 4.0 0.00 0.08 0.00 92 1020.0
20260901043007 57 205 0.0 3.0 0.00 0.08 0.00 92 1019.9
20260901041608 58 253 1.0 5.0 0.00 0.08 0.00 92 1019.7
20260901040029 58 205 1.0 8.0 0.00 0.08 0.00 92 1019.7
20260901034525 58 221 2.0 7.0 0.00 0.09 0.00 92 1019.6
20260901033042 58 222 2.0 5.0 0.00 0.09 0.00 92 1019.7
20260901031548 58 246 1.0 7.0 0.00 0.09 0.00 92 1019.7
20260901030036 58 215 2.0 5.0 0.00 0.09 0.00 92 1019.6
20260901024520 57 207 2.0 6.0 0.00 0.09 0.00 92 1019.6
20260901023018 57 208 2.0 7.0 0.00 0.09 0.00 92 1019.5
20260901021547 57 228 1.0 6.0 0.00 0.09 0.00 91 1019.5
20260901020018 57 211 2.0 5.0 0.00 0.09 0.00 91 1019.5
20260901014514 57 214 2.0 6.0 0.00 0.09 0.00 91 1019.4
20260901013046 57 213 1.0 6.0 0.00 0.09 0.00 91 1019.4
20260901011548 57 257 2.0 7.0 0.00 0.09 0.00 91 1019.3
20260901010055 57 244 1.0 4.0 0.00 0.09 0.00 90 1019.3